STARLINK AL (44269 NORAD) Tracking and Keplerian Element Data

This shows tracking and keplerian element data for the satellite.

Feedback or suggestion? Click here.




ElementValue
Catalog44269
NameSTARLINK AL
Epoch Orbit469
Epoch Day174.02475057
Epoch Year2019
RAAN37.3525
Inclination53.0003
Eccentricity0.000271
Argument of Perigee139.814
Mean Anonmoly220.3049
Mean Motion15.05398498
Decay Rate1.285E-05
L11 44269U 19029AL 19174.02475057 .00001285 00000-0 10787-3 0 9990
L22 44269 53.0003 37.3525 0002710 139.8140 220.3049 15.05398498 4690

Live tracking and technical data element details for STARLINK AL (NORAD 44269). STARLINK AL can be tracked NOW for your location showing map with azimuth and elevation plus other details from your city location.

Track the satellite on the map from your city or location and see movement details for azimuth, elevation, latitude, longitude, range, height, and movement on the map or in text.







IsCatalogInMostPopularTable: catalog: 44269, numindb: 32
Update: records affected: 1



GetName: 44269 STARLINK AL

Hit Count: updated at: Mon, 22 Jul 2019 16:11:39 GMT